Location: Home
(42.5358°N, 72.7383°W)
Time: 12:06:12
(UTC-05:00)

Explorer 7 - Pass Details

Date: 04 December 2021
Orbit: 483 x 674 km, 50.3° (Epoch: 26 January)

Event Time Altitude Azimuth Distance (km) Brightness Sun altitude
Rises 06:41:33 0° 263° (W) 2,805 - -4.5°
Exits shadow 06:41:43 - 263° (W) 2,742 9.9 -4.5°
Reaches altitude 10° 06:44:00 10° 271° (W) 1,871 9.0 -4.1°
Maximum altitude 06:48:00 39° 341° (NNW) 830 7.4 -3.5°
Drops below altitude 10° 06:51:47 10° 51° (NE) 1,768 9.7 -2.9°
Sets 06:54:03 0° 60° (ENE) 2,629 10.8 -2.5°
